• MPC Preparation (Info)

  • MPEC 2023-Q131 : 2023 QJ5

    The following Minor Planet Electronic Circular may be linked-to from your own Web pages, but must not otherwise be redistributed electronically.

    A form allowing access to any MPEC is at the bottom of this page.


    Read MPEC 2023-Q130 Read MPEC 2023-Q132


    M.P.E.C. 2023-Q131                              Issued 2023 August 24, 22:11 UT
    
         The Minor Planet Electronic Circulars contain information on unusual
             minor planets, routine data on comets and natural satellites,
             and occasional editorial announcements.  They are published
        on behalf of Division F of the International Astronomical Union by the
              Minor Planet Center, Smithsonian Astrophysical Observatory,
                              Cambridge, MA 02138, U.S.A.
    			  
                 Prepared using the Tamkin Foundation Computer Network
    
                                  MPC@CFA.HARVARD.EDU
                URL https://www.minorplanetcenter.net/    ISSN 1523-6714
    
                                    2023 QJ5                                 
    
    
    Observations:
         K23Q05J*KC2023 08 23.89726 21 04 00.25 +06 38 34.4          19.8 GXEQ131L51
         K23Q05J KC2023 08 23.89884 21 04 01.51 +06 39 00.0          19.9 GXEQ131L51
         K23Q05J KC2023 08 23.90041 21 04 02.87 +06 39 25.1          20.1 GXEQ131L51
         K23Q05J KC2023 08 23.96458 21 04 56.93 +06 56 41.1          19.9 GXEQ131L51
         K23Q05J KC2023 08 23.96778 21 04 59.75 +06 57 34.5          20.1 GXEQ131L51
         K23Q05J KC2023 08 23.97099 21 05 02.52 +06 58 27.5          20.2 GXEQ131L51
         K23Q05J KB2023 08 24.00530421 05 40.16 +07 08 03.7          19.9 GVEQ131I93
         K23Q05J KB2023 08 24.00781121 05 42.34 +07 08 45.8          19.6 GVEQ131I93
         K23Q05J KB2023 08 24.01025221 05 44.46 +07 09 26.1          19.9 GVEQ131I93
         K23Q05J 1C2023 08 24.02878 21 05 59.10 +07 14 08.2          21.0 VXEQ131033
         K23Q05J 1C2023 08 24.02923 21 05 59.51 +07 14 15.8          20.3 VXEQ131033
         K23Q05J 1C2023 08 24.02969 21 05 59.93 +07 14 23.7          20.6 VXEQ131033
         K23Q05J 1C2023 08 24.03023 21 06 00.41 +07 14 32.5          20.8 VXEQ131033
         K23Q05J KC2023 08 24.04471121 06 12.10 +07 18 59.9          20.5 GVEQ131L01
         K23Q05J KC2023 08 24.04619921 06 13.46 +07 19 25.7          20.2 GVEQ131L01
         K23Q05J KC2023 08 24.05065921 06 17.53 +07 20 40.3          20.3 GVEQ131L01
         K23Q05J KC2023 08 24.13417121 07 59.57 +07 45 32.5          21.0 VuEQ131H21
         K23Q05J KC2023 08 24.13610121 08 01.35 +07 46 06.9          20.8 VuEQ131H21
         K23Q05J KC2023 08 24.13803121 08 03.15 +07 46 41.3                uEQ131H21
         K23Q05J KC2023 08 24.14575021 08 10.36 +07 49 00.3          20.6 VuEQ131H21
         K23Q05J KC2023 08 24.85793 21 22 57.18 +12 01 55.2          19.5 GXEQ131L51
         K23Q05J KC2023 08 24.86034 21 23 00.58 +12 02 57.2          20.2 GXEQ131L51
         K23Q05J KC2023 08 24.86275 21 23 03.94 +12 03 58.1          19.8 GXEQ131L51
    
    Observer details:
    033 Karl Schwarzschild Observatory, Tautenburg.  Observers S. Melnikov, C.
        Hoegner, F. Ludwig, M. Hartmann, B. Stecklum.  Measurer B. Stecklum.
        1.34-m f/3 Schmidt + CCD.
    H21 Astronomical Research Observatory, Westfield.  Observer R. Holmes.
        Measurers T. Linder, R. Holmes, L. Horn.  0.76-m f/3.0 astrograph + CCD.
    I93 St Pardon de Conques.  Observer F. Losse.  0.40-m f/3.7 reflector + CMO.
    L01 Visnjan Observatory, Tican.  Observer K. Korlevic.  1.0-m f/2.9 reflector
        + CCD.
    L51 MARGO, Nauchnyi.  Observer G. Borisov.  0.50-m f/1.9 reflector + CCD.
    
    Orbital elements:
    2023 QJ5                                                 Earth MOID = 0.0060 AU
    Epoch 2023 Sept. 13.0 TT = JDT 2460200.5                Veres                   
    M 357.06379              (2000.0)            P               Q                  
    n   0.22345826     Peri.  211.78447     +0.97061023     -0.24016821             
    a   2.6895014      Node   162.09282     +0.22992594     +0.90663727             
    e   0.6571877      Incl.    2.85779     +0.07106220     +0.34688340             
    P   4.41           H   27.07          G   0.15           U   9                  
    Residuals in seconds of arc
    230823 L51  0.2+  0.3-    230824 I93  0.2-  0.3-    230824 H21  0.0   0.9+
    230823 L51  0.4-  0.1+    230824 033  0.1+  0.1-    230824 H21  0.2-  0.8+
    230823 L51  0.6+  0.1+    230824 033  0.1+  0.1-    230824 H21  0.1-  0.6+
    230823 L51  0.6+  0.9-    230824 033  0.2+  0.1+    230824 H21  0.2+  1.1+
    230823 L51  1.3+  0.1+    230824 033  0.1+  0.2-    230824 L51  0.1-  0.4-
    230823 L51  1.0+  0.5+    230824 L01  0.1-  0.2-    230824 L51  0.2+  0.3+
    230824 I93  0.1-  0.1+    230824 L01  0.0   0.4+    230824 L51  0.1-  0.1-
    230824 I93  0.1-  0.3+    230824 L01  0.1-  0.6-
    
    Ephemeris:
    2023 QJ5                 a,e,i = 2.69, 0.66, 3                   q = 0.9220
    Date    TT    R. A. (2000) Decl.     Delta      r    Elong.  Phase     V
    2023 07 25    20 16 01.7 -10 28 09   0.2559  1.2690   170.6     7.5    25.2
    ...
    2023 08 09    20 17 47.4 -08 11 26   0.1345  1.1441   164.3    13.9    23.8
    ...
    2023 08 17    20 25 28.0 -05 06 41   0.07593 1.0838   159.0    19.6    22.6
    ...
    2023 08 23    20 52 49.4 +03 22 30   0.03429 1.0429   156.4    22.8    20.9
    2023 08 24    21 05 38.8 +07 09 34   0.02775 1.0366   155.6    23.8    20.5
    2023 08 25    21 26 39.2 +13 07 26   0.02155 1.0303   153.2    26.2    20.0
    ...
    2023 08 31    06 43 35.2 +30 03 40   0.02675 0.9956    57.8   120.9    24.1
    ...
    2023 09 08    07 40 36.5 +17 34 44   0.08132 0.9585    50.9   125.3    26.8
    ...
    2023 09 23    08 03 26.7 +13 47 09   0.1867  0.9231    59.5   110.4    27.4
    
    M. P. C. Staff               (C) Copyright 2023 MPC           M.P.E.C. 2023-Q131
    


    Read MPEC 2023-Q130 Read MPEC 2023-Q132


    MPEC number:

    Enter an MPEC number in one of the following forms:

    • 1997-B01 (the full form)
    • J97B01 (the packed version of the full form)
    • B01 (the abbreviated form)